Regional Weather Roundup
Issued by NWS Upton, NY

Current Version | Previous Version | Text Only | Print | Product List | Glossary On
Versions: 1 2 3 4 5 6 7 8 9 10 11 12 13 14 15 16 17 18 19 20 21 22 23 24 25 26 27 28 29 30 31 32 33 34 35 36 37 38 39 40 41 42 43 44 45 46 47 48 49 50
000 ASUS41 KOKX 030118 RWROKX REGIONAL WEATHER ROUNDUP NATIONAL WEATHER SERVICE NEW YORK NY 900 PM EDT TUE JUN 02 2015 NOTE: "FAIR" INDICATES FEW OR NO CLOUDS BELOW 12,000 FEET WITH NO SIGNIFICANT WEATHER AND/OR OBSTRUCTIONS TO VISIBILITY. NYZ071-072-176-178-NJZ106-104-030200- NEW YORK CITY METRO AREA CITY SKY/WX TMP DP RH WIND PRES REMARKS CENTRAL PARK LGT RAIN 53 51 93 VRB6 30.18S LAGUARDIA APRT LGT RAIN 54 50 86 E9 30.15F KENNEDY INTL LGT RAIN 54 50 86 NE10 30.16S NEWARK/LIBERTY LGT RAIN 55 54 94 NE5 30.15S BRNX BOT. GARD N/A 52 50 93 CALM 30.15S TETERBORO LGT RAIN 55 52 88 CALM 30.15S $$ NYZ177-179-078>081-030200- LONG ISLAND NEW YORK CITY SKY/WX TMP DP RH WIND PRES REMARKS FARMINGDALE LGT RAIN 52 50 93 NE5 30.16S ISLIP LGT RAIN 52 50 93 E5 30.14R SHIRLEY LGT RAIN 51 49 92 VRB3 30.16S WESTHAMPTON LGT RAIN 52 49 89 NE8 30.17R MONTAUK POINT N/A 51 47 86 N7 30.18R $$ NYZ052-065-067-030200- HUDSON VALLEY CITY SKY/WX TMP DP RH WIND PRES REMARKS WHITE PLAINS CLOUDY 52 51 97 E3 30.15S NEWBURGH CLOUDY 54 54 100 NE5 30.17R MONTGOMERY CLOUDY 55 29 36 N3 30.15S POUGHKEEPSIE CLOUDY 55 51 86 CALM 30.15S ALBANY CLOUDY 58 50 75 S5 30.15R $$ NJZ001-105-106-008-010-013-015-019>022-104-030200- NEW JERSEY CITY SKY/WX TMP DP RH WIND PRES REMARKS NEWARK/LIBERTY LGT RAIN 55 54 94 NE5 30.15S TETERBORO LGT RAIN 55 52 88 CALM 30.15S CALDWELL CLOUDY 54 52 93 CALM 30.16S MORRISTOWN LGT RAIN 61 59 94 NE3 30.16S FOG SOMERVILLE LGT RAIN 56 52 86 NE5 30.13S SUSSEX CLOUDY 54 51 90 NE3 30.17R ANDOVER N/A 53 52 96 CALM 30.16R TRENTON LGT RAIN 54 53 97 E6 30.14R MILLVILLE LGT RAIN 55 53 93 NE9 30.13R ATLANTIC CITY LGT RAIN 54 52 93 NE8 30.13R WRIGHTSTOWN LGT RAIN 54 52 94 NE6 30.12R TOMS RIVER CLOUDY N/A N/A N/A E3 30.14R BELMAR CLOUDY 54 46 76 NE8 30.14S $$ PAZ047>061-062-071-030200- EASTERN PENNSYLVANIA CITY SKY/WX TMP DP RH WIND PRES REMARKS PHILADELPHIA LGT RAIN 57 53 86 NE6 30.15R ALLENTOWN CLOUDY 55 54 94 E6 30.15R SCRANTON CLOUDY 59 55 87 N5 30.14R $$ CTZ002-004>006-009-010-012-RIZ004-006-007-MAZ004-011-015-030200- SOUTHERN NEW ENGLAND IN CT CITY SKY/WX TMP DP RH WIND PRES REMARKS BRADLEY INTL CLOUDY 54 47 77 CALM 30.16S HARTFORD CLOUDY 53 47 79 VRB6 30.17R DANBURY CLOUDY 52 47 83 E3 30.17S WTRBRY/OXFORD CLOUDY 52 45 76 NE3 30.17S BRIDGEPORT CLOUDY N/A N/A N/A MISG 30.16S MERIDEN CLOUDY 54 48 80 CALM 30.17R NEW HAVEN CLOUDY 52 49 89 NE5 30.16S CHESTER FAIR 48 48 100 NE3 30.17S GROTON CLOUDY 50 47 89 NE6 30.17R WILLIMANTIC CLOUDY 51 45 79 NE9 30.18R IN RI CITY SKY/WX TMP DP RH WIND PRES REMARKS PROVIDENCE CLOUDY 49 44 83 NE9 30.18R BLOCK ISLAND CLOUDY 48 43 81 NE10G20 30.17R WESTERLY CLOUDY 49 47 93 CALM 30.18R IN MA CITY SKY/WX TMP DP RH WIND PRES REMARKS BOSTON CLOUDY 47 45 93 NE5 30.20R WORCESTER CLOUDY 47 44 90 NE3 30.17R WESTFIELD CLOUDY 53 47 79 N3 30.17S PROVINCETOWN CLOUDY 48 43 81 N13G18 30.17S NANTUCKET LGT RAIN 51 46 83 N22 30.13R $$ ANZ330-335-338-340-345-350-353-355-030200- COASTAL MARINE OBSERVATIONS STATION/POSITION TIME SKY/WX TEMP WIND PRES VSBY WAVE AIR SEA DIR/SP/G HT/PER (UTC) (F) (DEG/KT/KT) (MB) (MI) (FT/S) NY HARB ENTRANCE 0050 54 56 40/ 16/ 17 1020.0 3/ 8 4S FIRE IS 0003 54 N/A 3/ 8 20S FIRE ISLAND 0050 53 56 50/ 16/ 19 1020.4 4/ 5 GREAT SOUTH BAY 0000 53 65 50/ 10/ 12 N/A 23SW MTP 0050 51 56 40/ 17/ 21 1020.6 4/ 5 HUDSON CANYON NOT AVBL KINGS POINT 0000 53 57 50/ 2/ 4 1020.7 CENTRAL LI SOUND 0000 53 56 60/ 12/ 14 N/A EASTERN LI SOUND 0000 51 30/ 10/ 12 N/A ROBBINS REEF 0000 54 80/ 9/ 11 1019.8 $$ >>>>>>>>>>>>>>>>>>>>>>>>>>>> KEY <<<<<<<<<<<<<<<<<<<<<<<<<<< > < > SKY/WX - SKY CONDITION/PRESENT WEATHER < > TMP - TEMPERATURE IN FAHRENHEIT < > DP - DEWPOINT IN FAHRENHEIT < > RH - RELATIVE HUMIDITY IN PERCENT < > WIND - DIRECTION AND SPEED IN MPH < > PRES - MEAN SEA LEVEL PRESSURE IN INCHES OF HG < > WCI - WIND CHILL INDEX < > VSB - VISIBILITY IN MILES < > HX - HEAT INDEX < > TC - TEMPERATURE IN CELSIUS < > VRB - VARIABLE WIND DIRECTION < > < >>>>>>>>>>>>>>>>>>>>>>>>>>>> KEY <<<<<<<<<<<<<<<<<<<<<<<<<<<

USA.gov is the U.S. government's official web portal to all federal, state and local government web resources and services.